Terminal Aerodrome Forecast
Issued by NWS Grand Forks, ND

Home | Current Version | Previous Version | Graphics & Text | Print | Product List | Glossary On
Versions: 1 2 3 4 5 6 7 8 9 10 11 12 13 14 15 16 17
000
FTUS43 KFGF 251400 AAA
TAFFAR
TAF AMD
KFAR 251433Z 2515/2612 18015G25KT P6SM BKN030
     FM251600 25015G25KT P6SM BKN060
     FM251800 30012G20KT P6SM SCT250
     FM260100 28006KT P6SM SKC=

USA.gov is the U.S. government's official web portal to all federal, state and local government web resources and services.